Regional Weather Roundup
Issued by NWS

Home | Current Version | Previous Version | Text Only | Print | Product List | Glossary On
Versions: 1 2 3 4 5 6 7 8 9 10 11 12 13 14 15 16 17 18 19 20 21 22 23 24 25 26 27 28 29 30 31 32 33 34 35 36 37 38 39 40 41 42 43 44 45 46 47 48 49 50
000
ASUS43 KTOP 241508
RWRKS

WEATHER ROUNDUP FOR KANSAS
NATIONAL WEATHER SERVICE GOODLAND KS
900 AM CST MON NOV 24 2014

NOTE:  "FAIR" INDICATES FEW OR NO CLOUDS BELOW 12,000 FEET WITH NO
SIGNIFICANT WEATHER AND/OR OBSTRUCTIONS TO VISIBILITY.

KSZ001>006-013>018-027>032-041>047-241600-
NORTHWEST KANSAS

CITY           SKY/WX    TMP DP  RH WIND       PRES   REMARKS
GOODLAND       MOSUNNY   32  12  43 W12       29.89R WCI  23
HAYS           MOSUNNY   36  16  44 W10       29.86R WCI  28
HILL CITY      SUNNY     35  15  44 W12       29.86R WCI  27
RUSSELL        MOSUNNY   39  19  44 NW21      29.83R WCI  29
$$

KSZ061>065-074>080-084>089-241600-
SOUTHWEST KANSAS

CITY           SKY/WX    TMP DP  RH WIND       PRES   REMARKS
DODGE CITY     SUNNY     36  17  46 W17       29.92R WCI  26
ELKHART          N/A    N/A N/A N/A MISG        N/A
GARDEN CITY    SUNNY     32  20  61 W12       29.93R WCI  23
GREAT BEND     PTSUNNY   39  18  41 NW22G28   29.86R WCI  29
LIBERAL        SUNNY     34  21  60 W16       29.99R WCI  23
PRATT          MOSUNNY   37  19  48 NW20G25   29.88R WCI  27
$$

KSZ066>073-081>083-090>101-241600-
SOUTHEAST KANSAS

CITY           SKY/WX    TMP DP  RH WIND       PRES   REMARKS
CHANUTE        SUNNY     40  27  59 W16       29.80R WCI  31
COFFEYVILLE    SUNNY     40  28  62 SW12G17   29.85R WCI  33
HUTCHINSON     MOSUNNY   38  20  48 NW15      29.83R WCI  29
MEDICINE LODGE   N/A     40  20  44 W14G22    29.89R WCI  32
NEWTON         SUNNY     37  21  52 W16G22    29.83R WCI  28
PARSONS        SUNNY     40  28  62 W12       29.84R WCI  33
WICHITA INTL   MOSUNNY   39  23  52 W16       29.85R WCI  30
WICHITA JABRA  SUNNY     39  23  52 W15G24    29.83R WCI  31
WICHITA MCCONL SUNNY     39  22  49 NW13G18   29.84R WCI  32
WINFIELD       SUNNY     39  26  59 W14       29.87R WCI  31
$$

KSZ007>012-019>026-033>040-048>060-102>105-241600-
NORTHEAST KANSAS

CITY           SKY/WX    TMP DP  RH WIND       PRES   REMARKS
CONCORDIA      SUNNY     34  23  64 NW16G25   29.79R WCI  24
EMPORIA        SUNNY     38  25  59 W17       29.76R WCI  28
LAWRENCE       SUNNY     35  23  61 NW18G28   29.73R WCI  24
MANHATTAN      SUNNY     37  25  61 VRB7G17   29.78R
MARYSVILLE     CLOUDY    32  23  69 NW20G28   29.74R WCI  20
OLATHE IND     SUNNY     34  24  67 W15G24    29.71R WCI  24
OLATHE EXE     SUNNY     35  23  61 W20G28    29.70R WCI  24
SALINA         SUNNY     41  22  46 NW18      29.81R
TOPEKA BILLARD MOSUNNY   37  24  59 NW18G29   29.74R WCI  27
TOPEKA FORBES  SUNNY     37  24  59 NW20G28   29.72R WCI  27
$$



USA.gov is the U.S. government's official web portal to all federal, state and local government web resources and services.